Location: Grange Rosano
(44.4500°N, 6.9667°E)
Time: 21:22:20
(UTC+00:00)

IDEFIX/ARIANE 42P - Pass Details

Date: 26 May 2022
Orbit: 785 x 802 km, 98.5° (Epoch: 01 July)

Event Time Altitude Azimuth Distance (km) Brightness Sun altitude
Rises 01:38:56 0° 16° (NNE) 3,324 7.2 -18.1°
Reaches altitude 10° 01:41:18 10° 19° (NNE) 2,389 6.3 -17.8°
Maximum altitude 01:46:34 67° 102° (ESE) 869 2.8 -17.3°
Enters shadow 01:49:57 22° 180° (S) 1,676 3.8 -17.0°
